Location: Ida Center
(41.8662°N, 83.5713°W)
Time: 00:16:02
(UTC+00:00)

Cosmos 1862 - Pass Details

Date: 17 November 2019
Orbit: 538 x 557 km, 82.5° (Epoch: 06 December)

Event Time Altitude Azimuth Distance (km) Brightness Sun altitude
Rises 23:49:41 0° 347° (NNW) 2,705 6.9 -18.1°
Reaches altitude 10° 23:51:52 10° 343° (NNW) 1,810 6.0 -18.5°
Maximum altitude 23:55:46 55° 265° (W) 658 4.0 -19.3°
Drops below altitude 10° 23:59:38 10° 188° (S) 1,805 6.1 -20.0°
Sets 00:01:49 0° 184° (S) 2,696 7.0 -20.4°
